Location: Phoenix
(33.4480°N, 112.0730°W)
Time: 02:29:04
(UTC-07:00)

Cosmos 1470 Rocket - Visible Passes

Search period start: 25 October 2014 00:00
Search period end: 04 November 2014 00:00
Orbit: 606 x 635 km, 82.5° (Epoch: 24 October)

Date Brightness Start Highest point End Pass type
(mag) Time Alt. Az. Time Alt. Az. Time Alt. Az.
25 Oct 6.2 03:48:32 17° E 03:49:02 17° E 03:51:56 10° NE visible
25 Oct 4.3 05:25:55 29° W 05:26:37 31° WNW 05:30:35 10° NNW visible
26 Oct 5.6 04:08:34 23° NE 04:08:34 23° NE 04:10:40 10° NNE visible
26 Oct 5.3 05:45:52 14° NW 05:45:52 14° NW 05:47:22 10° NW visible
27 Oct 5.8 04:27:50 16° NNE 04:27:50 16° NNE 04:28:49 10° NNE visible
